Siga o Apolo11 no Facebook   Siga o Apolo11 no Twiiter
Ciência, Espaço e Tecnologia




Elementos Keplerianos formato Two Line

Para que um programa de rastreio possa saber a localização exata de qualquer satélite no espaço e assim poder rastreá-lo corretamente, é necessário que ele seja carregado com algumas informações.

Estas informações são chamadas de Elementos Orbitais ou Elementos Keplerianos e consistem em 2 linhas com dezenas de números. Esses números nada mais são que os parâmetros orbitais do satélite, tais como altitude, atitude, excentricidade da órbita, número de órbitas por dia, etc.

Com base nestas informações o programa é capaz de determinar com bastante exatidão a posição de qualquer satélite no espaço e nos informar em qual horário este estará dentro do alcance de nossa estação. Para que isso seja feito com precisão é necessário que os dados estejam sempre bem atualizadas.

Devido aos parâmetros orbitais serem descritos em 2 linhas, estes formato é também conhecido internacionalmente por 2line (leia-se Two Line”).

Para atualizar seu programa de rastreio basta copiar os dados disponibilizados e fornece-los ao programa. Nossos elementos orbitais são atualizados diariamente.

NOAATodos os satélites ambientais da série NOAA
30 DiasSatélites lançados nos últimos 30 dias
ISSSatélites e foguetes relacionados à Estação Espacial Internacional
HAMSatélites construídos por radiomadores
CUBESatélites tipo cubo, com 10 centímetros de lado
METEOSatélites voltados à previsão do tempo
EDUSatélites construídos e operados por universidades
VIS100 satélites mais brilhantes que podem ser vistos a olho nú



Satélites Educacionais
SAUDISAT 1C             
1 27607U 02058C   21100.60240239  .00000005  00000-0  21012-4 0  9992
2 27607  64.5555 185.8249 0033414  47.2325 313.1579 14.75732269984544
SAUDISAT 2              
1 28371U 04025F   21100.71011761  .00000055  00000-0  23867-4 0  9990
2 28371  98.3201  53.2440 0025922 359.4181   0.6983 14.54422169890387
SAUDISAT 3              
1 31118U 07012B   21100.57736158 -.00000014  00000-0  57702-5 0  9992
2 31118  97.9142  54.6685 0016142 131.7213 228.5376 14.69197865749597
PISAT                   
1 41784U 16059B   21100.41866783  .00000104  00000-0  28883-4 0  9990
2 41784  97.9751 154.1602 0033336  97.1030 263.3965 14.63605950242349
FLYING LAPTOP           
1 42831U 17042G   21100.52453081  .00000237  00000-0  28999-4 0  9997
2 42831  97.4819 333.8384 0014549  20.1738 340.0063 14.91267187203562
SALSAT                  
1 46495U 20068K   21100.57392372  .00000955  00000-0  74629-4 0  9997
2 46495  97.6871  38.4917 0016390 305.2634  54.7063 15.03398613 29131


IMAGENS DE SATÉLITES !    Clique e conheça nosso Vídeo Workshop de sensoriamento remoto e imagens meteorológicas.
Apolo11.com - Todos os direitos reservados - 2001 - 2021
Política de Privacidade

"Quanto mais uma pessoa compreende a seriedade da vida, melhor dela se pode rir" - Schopenhauer